Temperature
20 20 20 20 24 25 24 23 24 23 23 22 22 22 22 22 22 20 17 17 17 17 17 17 17 17 17 17 17 17 17 17 17 17 17 17 17 17 17 17 17 17 17 17 17 17 17 17 17
20 20 20 22 25 25 23 23 23 23 22 21 21 21 22 20 19 18 17 17 17 17 17 17 17 17 17 17 17 17 17 17 17 17 17 17 17 17 17 17 17 17 17 17 17 17 17 17 17
20 21 22 25 25 24 23 23 23 22 21 21 21 21 21 19 18 17 17 17 17 17 17 17 17 17 17 17 17 17 17 17 17 17 17 17 17 17 17 17 17 17 17 17 17 17 17 17 17
20 21 23 25 23 23 23 23 23 22 22 21 21 21 19 17 17 17 17 17 17 16 16 17 17 17 17 17 17 17 17 17 17 17 16 16 16 16 17 17 17 17 17 17 17 17 17 17 17
20 23 24 24 23 23 23 23 22 23 22 21 21 21 19 17 17 17 17 17 17 16 16 16 17 17 17 17 17 17 17 17 17 16 16 16 16 16 16 16 17 17 17 17 17 17 17 17 17
22 24 24 23 23 23 23 22 22 22 22 21 21 21 18 17 17 17 17 16 16 16 16 16 17 17 17 17 17 17 17 17 16 16 16 16 16 16 16 16 16 17 17 16 16 16 16 16 16
23 24 24 23 23 23 23 22 22 22 22 21 20 21 18 17 17 17 16 16 16 16 16 16 16 16 17 17 17 17 17 16 16 16 16 16 16 16 16 16 16 16 16 16 16 16 16 16 16
22 24 24 23 23 22 22 21 21 21 21 19 19 21 19 17 16 16 16 16 16 16 16 16 16 16 16 16 16 17 16 16 16 16 16 16 16 16 16 16 16 16 16 16 16 16 16 16 16
22 24 23 23 23 23 22 22 21 20 20 19 18 19 18 17 16 16 16 16 16 16 16 16 16 16 16 16 16 16 16 16 16 16 16 16 16 16 15 16 16 16 16 16 16 16 16 16 16
23 24 23 23 23 23 22 22 21 21 20 19 18 17 17 16 16 17 17 17 17 17 16 16 16 16 16 16 16 16 16 16 16 16 16 16 16 16 16 16 16 16 16 16 16 16 16 15 15
23 23 23 22 22 22 22 21 21 21 21 20 19 17 17 16 16 17 17 17 17 17 16 16 16 16 16 16 16 16 16 16 16 16 16 16 16 16 15 15 15 15 15 15 15 15 15 15 15
23 23 22 22 21 22 22 21 21 20 20 19 18 17 17 17 17 16 16 16 16 16 16 16 16 16 16 16 16 16 16 16 16 16 16 16 16 16 15 15 15 15 15 15 15 15 15 15 15
23 22 21 21 21 21 21 21 20 19 18 18 18 17 17 17 17 17 16 16 16 16 16 16 16 16 16 16 16 16 16 16 16 16 16 16 16 15 15 15 15 15 15 15 15 15 15 15 15
23 22 22 21 21 21 21 21 20 19 18 18 17 17 17 17 17 17 16 16 17 16 16 16 16 16 16 16 16 16 16 16 16 16 16 16 15 15 15 15 15 15 15 15 15 15 15 15 15
22 23 22 22 22 21 22 21 21 19 18 18 18 17 17 17 17 17 17 17 17 17 16 16 16 16 16 16 16 16 16 16 16 15 15 15 15 15 15 15 15 15 15 15 15 15 15 15 14
23 23 23 22 22 21 22 21 21 19 19 19 18 18 17 17 17 17 17 17 17 16 16 16 16 16 16 16 16 15 15 16 15 15 15 15 15 15 15 15 15 15 14 14 14 14 14 14 14
23 23 23 23 23 22 22 22 21 19 19 19 19 18 18 17 17 17 17 17 16 16 16 16 16 16 16 16 15 15 15 15 15 15 15 15 15 15 15 15 14 14 14 14 14 14 14 14 14
23 23 23 23 23 22 22 22 22 20 19 20 19 19 18 18 17 17 17 17 16 16 16 16 16 16 16 15 15 15 15 15 15 15 15 15 15 15 15 14 14 14 14 14 14 14 14 14 14
23 23 23 23 23 22 22 22 22 20 20 20 19 19 19 18 18 17 17 17 16 16 16 16 16 16 16 15 15 15 15 15 15 15 15 15 15 14 14 14 14 14 14 14 14 14 14 14 13
23 23 22 22 22 22 22 22 22 21 20 20 20 19 19 18 18 17 17 17 17 16 16 16 16 16 16 15 15 15 15 15 15 15 15 14 14 14 14 14 14 14 14 14 14 14 13 13 13
23 23 23 22 22 22 22 22 22 22 21 20 20 19 19 18 18 18 17 17 17 16 16 16 16 16 16 16 15 15 15 15 15 15 14 14 14 14 14 14 14 14 14 14 14 14 14 13 13
22 23 22 22 22 22 22 22 23 22 21 21 20 19 19 18 18 18 17 17 17 16 16 16 16 16 16 16 15 15 15 15 15 15 14 14 14 14 14 14 14 14 14 14 13 13 13 13 13
22 22 22 22 22 23 23 22 23 22 22 22 21 20 19 18 18 18 17 17 17 17 16 16 16 16 16 16 16 15 15 15 15 15 14 14 14 14 14 14 14 14 14 14 14 13 13 13 13
22 22 22 22 23 22 23 22 22 23 22 22 21 20 19 18 18 18 17 17 17 17 16 16 16 16 16 16 16 15 15 15 15 14 14 14 14 14 14 14 14 14 14 14 14 13 13 13 13
22 22 22 22 22 22 22 22 22 22 22 21 21 20 19 18 18 17 17 17 17 16 16 16 16 16 16 16 16 15 15 15 15 14 14 14 14 14 14 14 14 14 13 13 13 13 13 13 13
22 23 22 21 22 22 22 22 23 22 21 20 19 19 18 18 17 17 17 17 17 16 16 16 16 16 16 16 15 15 15 15 15 15 14 14 14 14 14 14 14 14 13 13 13 13 13 13 13
22 22 23 22 22 22 22 22 22 22 21 20 19 19 18 17 17 17 17 17 16 16 16 16 16 16 16 15 15 15 15 15 15 15 14 14 14 14 14 14 14 14 13 13 13 13 13 13 13
22 22 22 22 21 21 22 22 22 21 21 21 20 19 18 17 17 17 17 16 16 16 16 16 16 16 16 15 15 15 15 15 15 14 14 14 14 14 14 14 14 13 13 13 13 13 13 13 13
21 21 22 22 22 21 21 22 22 21 21 21 20 19 18 17 17 17 16 16 16 16 16 16 16 15 15 15 15 15 15 15 14 14 14 14 14 14 14 14 14 13 13 13 13 13 13 13 13
21 21 22 21 21 21 21 22 22 21 20 20 19 18 17 17 17 16 16 16 16 16 16 15 15 15 15 15 15 15 14 14 14 14 14 14 14 14 14 14 14 13 13 13 13 13 13 13 13
Wind_Speed
1 1 2 2 2 3 5 5 4 5 5 6 6 5 6 7 5 5 4 4 4 4 5 7 8 9 9 9 10 10 11 11 11 10 11 11 11 10 10 10 9 10 10 10 10 10 10 11 11
1 1 2 2 1 4 5 5 6 6 6 5 5 6 7 7 6 6 4 4 4 5 6 7 9 9 10 10 10 10 11 11 11 11 11 11 11 11 11 11 10 11 11 12 13 12 12 12 12
0 1 1 1 2 4 5 6 7 7 5 3 4 5 5 5 5 4 5 5 6 6 7 9 9 10 10 10 10 10 11 11 11 11 11 11 11 11 11 11 11 12 12 13 13 13 13 12 12
1 1 1 3 7 6 5 6 6 7 5 4 4 6 5 5 4 5 7 6 7 7 8 9 9 9 10 10 10 11 11 11 11 11 10 11 11 11 11 11 11 12 12 12 13 13 13 13 13
1 1 3 6 7 6 5 5 4 4 4 4 5 7 6 5 7 8 7 7 7 7 8 9 9 9 10 10 10 11 10 11 11 11 11 11 11 11 11 12 12 12 12 12 13 13 14 13 12
1 1 4 6 7 6 5 4 4 5 6 5 5 6 6 5 7 7 7 7 7 7 7 9 9 9 10 10 10 10 11 11 11 11 11 11 12 11 11 12 12 12 12 13 14 14 14 13 13
0 2 4 7 7 6 4 3 3 4 5 4 2 5 6 6 6 7 7 7 7 7 7 7 8 9 10 10 11 10 11 11 11 12 12 12 12 12 12 12 12 12 12 13 13 14 14 14 13
1 2 5 5 6 5 5 4 4 4 5 4 2 3 5 6 7 7 8 7 7 6 6 6 7 7 8 9 10 11 11 11 11 11 11 10 10 11 11 12 13 13 13 13 13 14 14 14 13
1 2 4 4 4 5 6 5 4 4 5 4 3 4 6 10 8 8 7 7 6 6 6 6 6 6 7 8 8 8 9 9 8 9 8 6 8 9 9 13 12 12 13 13 13 13 12 12 12
0 3 4 3 4 6 6 5 5 4 5 4 5 6 8 9 8 8 7 6 6 6 5 5 5 5 6 6 6 5 6 6 6 7 7 7 7 8 9 12 11 11 11 12 12 10 8 6 8
3 4 5 4 5 6 6 5 3 3 3 2 5 8 9 8 7 7 6 6 5 5 5 4 4 5 5 4 5 5 5 5 5 6 7 6 6 6 6 6 7 8 7 8 9 8 8 8 8
5 6 5 5 5 5 5 4 3 3 3 4 6 8 9 8 7 6 6 6 5 4 4 4 4 4 4 5 5 4 4 4 4 4 6 5 5 5 5 5 6 6 6 6 7 7 9 9 9
5 5 5 5 6 5 6 5 4 4 4 6 8 8 8 7 6 6 6 6 5 5 4 4 3 4 4 5 4 4 4 4 5 4 4 5 4 4 5 5 6 6 6 6 6 6 8 8 9
4 6 5 5 5 4 5 4 3 3 5 7 8 7 7 6 6 6 5 5 4 4 4 4 4 4 4 4 3 3 4 4 4 4 4 5 5 4 4 5 5 5 6 6 6 7 6 7 7
5 6 5 4 4 4 4 3 3 5 6 7 7 7 6 5 6 5 5 4 4 4 4 4 3 4 4 3 4 3 3 3 3 3 3 4 4 4 4 4 4 5 5 6 6 7 6 6 6
4 4 4 3 3 4 5 2 4 6 7 7 7 7 6 6 5 5 4 4 4 4 4 4 3 4 4 3 3 3 3 3 3 3 3 4 4 4 4 4 4 5 5 4 4 4 5 5 6
4 3 3 3 3 4 4 2 5 6 7 7 7 7 7 6 6 5 5 5 4 4 4 4 4 4 4 3 3 2 3 2 2 3 2 3 4 4 4 4 4 4 4 4 4 4 4 5 6
3 3 2 2 3 4 5 3 4 6 7 7 8 8 7 7 7 6 6 5 5 4 4 4 5 4 4 3 2 2 2 2 2 2 2 3 3 3 3 3 3 3 3 3 3 4 4 4 5
2 3 2 1 2 3 4 4 4 6 7 8 8 9 8 8 7 6 6 6 5 5 5 5 5 5 4 3 3 2 2 2 2 2 2 2 2 3 3 2 3 3 2 2 3 4 4 4 4
5 5 3 1 1 3 3 4 4 6 8 8 9 9 9 9 8 7 7 7 6 6 6 6 5 5 5 3 2 2 2 1 1 1 2 2 2 2 2 3 2 3 3 3 3 3 2 2 1
5 5 4 2 1 3 4 5 5 5 6 7 8 8 9 9 9 9 8 7 7 7 6 6 6 6 5 4 3 3 2 2 2 2 1 1 1 2 2 2 2 2 3 3 3 3 2 2 1
5 3 4 4 5 3 4 4 3 4 5 6 8 9 10 10 9 9 8 8 8 8 7 7 6 6 6 6 5 5 4 3 2 2 2 2 2 2 2 2 2 3 2 3 3 3 2 2 1
3 1 4 5 5 6 5 5 2 3 4 6 7 9 10 10 10 10 9 9 8 7 7 7 7 7 7 7 6 5 4 3 2 3 3 3 3 3 3 3 3 3 3 3 3 3 2 2 2
4 4 4 5 6 6 4 5 2 1 2 3 4 6 8 9 10 9 9 8 7 7 6 6 7 7 7 7 7 6 5 4 4 4 3 3 3 3 3 3 3 3 3 3 3 3 3 3 2
7 6 4 5 5 3 1 4 2 2 2 3 2 3 6 8 9 9 9 9 8 7 6 6 7 7 7 7 7 7 6 6 6 5 4 4 3 3 4 4 3 3 3 3 3 3 3 3 3
7 8 5 3 3 2 3 4 0 2 2 2 1 2 4 7 8 8 9 8 8 7 6 6 7 7 7 7 7 7 6 5 4 5 5 4 3 3 3 4 3 3 3 3 3 3 2 2 3
5 6 5 5 4 5 3 2 1 1 1 2 1 2 4 6 7 8 7 7 7 7 7 7 7 7 7 7 7 6 6 5 5 5 5 3 3 3 4 4 4 4 4 4 3 2 2 2 2
4 4 4 5 4 5 4 4 2 0 1 1 1 2 3 5 6 6 6 6 6 6 6 6 6 6 6 6 5 4 5 5 5 5 5 4 4 4 4 5 4 4 5 4 4 3 2 3 2
4 5 6 6 6 5 4 1 1 1 1 0 1 2 3 4 5 6 5 5 5 5 5 5 6 6 5 5 5 5 4 4 4 5 5 4 4 5 5 5 5 5 5 5 4 4 4 4 3
4 6 7 7 6 7 6 2 2 1 1 0 1 2 3 3 3 4 4 4 5 5 5 5 5 5 4 4 4 5 4 4 4 4 4 4 5 5 5 5 6 6 5 5 5 5 5 4 4
Wind_Direction
214 248 253 252 201 117 89 82 87 97 82 70 72 69 68 52 36 64 77 75 71 78 76 85 72 71 75 79 82 82 84 85 86 89 89 88 87 86 85 83 81 75 71 68 80 92 85 82 81
303 260 234 241 188 128 98 93 91 83 97 105 86 78 78 69 58 84 90 83 85 83 80 80 79 74 72 76 80 83 85 86 85 85 88 89 87 85 81 81 79 77 72 71 81 88 84 83 81
176 262 276 148 101 94 107 100 100 99 104 106 95 71 63 70 75 85 90 103 96 86 83 82 78 74 70 74 81 85 85 85 84 85 86 86 85 84 84 81 77 77 74 74 78 83 83 80 79
240 212 181 113 100 78 89 106 116 123 103 81 105 94 85 60 68 93 110 107 98 90 85 85 77 74 70 73 76 80 82 84 84 84 82 82 81 82 83 82 80 78 77 77 79 82 82 79 75
240 209 133 116 101 94 89 93 119 113 102 90 102 106 96 72 86 105 113 107 99 92 88 87 76 73 69 74 78 78 80 80 79 79 80 80 79 79 81 81 80 79 78 80 80 80 80 80 77
200 188 143 126 113 107 98 95 116 101 101 101 106 112 98 100 106 109 110 105 96 93 91 94 85 74 72 73 78 77 77 78 77 77 77 79 78 78 79 79 80 81 81 79 81 81 81 79 76
95 130 121 124 126 121 106 100 99 105 101 86 90 114 117 114 108 117 113 105 98 93 91 94 95 90 83 73 73 77 77 77 76 75 76 77 78 77 77 78 79 82 83 81 81 81 81 79 77
20 139 129 129 134 123 118 111 92 87 91 84 74 108 125 132 126 121 115 110 102 97 95 91 89 85 88 85 74 73 73 75 76 75 77 82 90 87 83 83 80 82 83 81 81 82 82 80 77
249 155 131 128 134 127 136 130 107 96 104 97 74 68 104 129 134 129 122 115 108 102 100 95 91 84 83 85 85 86 84 82 91 89 88 94 90 87 88 79 81 82 81 80 81 83 84 85 81
55 116 98 95 118 131 136 126 129 130 111 111 107 99 117 135 141 136 131 125 118 112 106 100 97 91 86 84 87 83 83 83 79 81 82 82 83 79 82 89 84 85 87 88 85 89 95 86 80
76 92 102 98 108 129 130 116 114 137 101 108 133 133 138 142 144 139 134 129 120 117 111 109 107 95 88 92 88 82 79 78 75 73 80 83 86 91 87 90 98 95 96 89 92 89 76 75 71
102 92 101 111 116 128 129 129 114 85 75 89 122 138 144 147 147 146 145 138 133 120 114 115 110 107 98 93 91 88 84 81 80 72 73 80 81 82 80 80 78 79 80 81 80 80 78 75 73
114 110 101 111 119 120 120 117 112 97 96 111 125 137 146 151 152 153 152 146 141 131 124 122 123 115 102 94 89 91 83 77 82 70 70 75 82 83 85 86 78 77 80 85 84 81 77 73 69
110 121 121 124 131 141 133 124 135 123 129 131 138 143 151 156 160 157 159 158 153 143 134 131 135 124 113 107 106 88 85 82 74 72 64 78 85 87 88 85 80 79 79 77 82 83 79 75 71
140 137 137 144 157 159 165 155 170 149 154 149 152 150 154 162 165 169 171 172 165 155 148 140 142 142 131 116 99 90 84 86 82 81 78 86 89 95 96 90 87 88 90 88 85 84 81 81 80
170 180 170 146 172 181 209 189 146 159 168 166 166 164 168 169 175 177 178 180 168 166 162 150 156 159 142 123 118 115 104 84 85 86 83 94 101 100 98 96 90 90 87 89 90 88 86 83 77
189 193 179 163 179 188 212 202 152 172 184 182 181 180 180 176 181 184 187 186 176 173 167 159 159 160 147 142 135 115 105 90 85 80 76 94 104 109 109 102 101 99 96 95 93 89 88 88 81
189 204 199 193 168 195 213 216 175 186 198 198 193 192 189 189 188 185 186 186 184 181 175 170 161 161 153 158 154 134 116 111 90 83 91 100 115 116 113 119 119 113 109 104 101 96 92 93 93
230 230 230 236 184 213 228 236 219 200 208 210 206 202 198 197 190 186 189 186 185 184 180 180 178 172 168 163 166 166 160 154 136 116 112 122 129 135 132 135 137 138 129 124 120 114 112 110 111
214 214 215 185 161 235 251 261 245 217 218 219 215 208 203 198 187 185 189 186 187 190 189 185 187 180 176 170 166 172 164 168 142 135 143 145 144 157 156 166 160 158 147 150 140 135 140 132 149
218 237 235 225 210 227 262 259 224 206 211 215 219 213 207 202 198 190 190 192 191 194 192 194 193 184 180 175 166 162 157 168 166 169 164 151 158 174 182 173 170 170 177 167 172 174 176 164 172
231 247 240 229 248 258 252 280 222 198 208 216 217 212 208 205 204 195 190 193 197 198 196 200 197 193 183 183 188 197 198 195 186 186 169 172 179 185 189 183 188 186 190 183 192 194 214 216 200
244 200 223 235 252 264 244 260 240 185 228 230 222 212 207 205 203 198 195 196 198 197 198 203 200 195 189 191 194 207 213 208 194 192 187 191 176 182 184 194 202 203 201 202 205 208 233 242 257
180 177 190 222 244 254 245 246 260 192 270 263 225 210 205 201 200 199 195 194 197 193 196 202 201 197 197 199 202 209 212 211 205 205 201 197 185 186 189 202 215 218 212 210 213 220 230 247 258
208 224 227 219 218 235 164 245 264 24 337 301 270 209 194 191 191 192 190 189 192 192 193 195 199 204 205 208 214 218 217 217 216 215 210 207 198 197 198 200 214 220 219 217 219 226 233 235 242
217 233 247 257 246 239 205 238 132 33 355 332 296 182 177 183 186 188 189 187 187 189 193 199 202 207 210 214 219 223 218 220 222 224 222 218 211 209 204 205 211 214 215 214 215 233 233 238 238
216 227 261 273 270 267 235 214 207 85 50 55 76 138 166 179 185 188 188 188 190 190 192 199 203 205 207 210 217 223 223 226 224 226 225 223 219 210 209 211 207 209 208 212 209 223 218 223 232
257 227 223 240 251 249 240 239 243 139 13 51 75 131 152 170 181 184 188 190 193 195 195 196 203 206 206 205 212 215 220 224 228 228 225 223 221 213 210 215 214 209 204 204 207 218 216 214 212
199 211 231 241 254 265 261 231 46 329 336 340 96 108 138 159 173 177 182 185 188 191 191 194 203 207 206 206 206 208 211 216 220 229 230 224 222 219 216 216 221 218 211 208 203 209 200 209 207
253 241 237 245 246 251 266 266 94 49 359 287 120 118 131 153 169 172 175 175 179 183 186 191 199 204 206 207 204 206 208 208 217 226 234 231 226 225 223 222 222 219 217 214 210 208 203 204 207
Height
1518 1518 1518 1519 1518 1517 1522 1523 1521 1524 1526 1529 1530 1529 1529 1531 1533 1541 1542 1540 1540 1539 1539 1538 1537 1537 1536 1536 1535 1535 1535 1534 1534 1534 1534 1534 1534 1534 1534 1533 1533 1532 1530 1526 1523 1528 1530 1531 1532
1518 1518 1520 1520 1516 1521 1527 1524 1525 1527 1530 1531 1532 1532 1532 1535 1538 1540 1540 1540 1541 1540 1540 1540 1539 1538 1538 1538 1537 1537 1537 1536 1536 1536 1536 1536 1536 1536 1535 1535 1535 1534 1532 1529 1527 1530 1532 1533 1534
1519 1519 1522 1517 1518 1522 1527 1525 1527 1530 1531 1532 1533 1534 1535 1539 1540 1541 1541 1541 1542 1542 1542 1541 1541 1540 1540 1540 1539 1539 1539 1538 1538 1538 1538 1538 1538 1537 1537 1537 1536 1536 1535 1534 1533 1534 1534 1535 1535
1520 1522 1521 1519 1524 1525 1525 1527 1529 1530 1532 1533 1533 1536 1539 1542 1542 1542 1542 1543 1543 1543 1543 1543 1542 1542 1542 1541 1541 1541 1541 1540 1540 1540 1540 1540 1539 1539 1539 1538 1538 1538 1537 1537 1537 1537 1537 1537 1537
1521 1521 1519 1523 1526 1527 1528 1529 1530 1530 1532 1534 1534 1537 1541 1543 1542 1543 1543 1544 1545 1545 1545 1544 1544 1544 1543 1543 1543 1543 1542 1542 1542 1542 1542 1541 1541 1541 1540 1540 1540 1540 1540 1540 1539 1539 1539 1539 1539
1523 1520 1521 1526 1528 1528 1529 1531 1531 1531 1533 1535 1536 1537 1542 1544 1544 1544 1545 1545 1546 1546 1546 1546 1546 1545 1545 1545 1544 1544 1544 1544 1544 1544 1543 1543 1543 1542 1542 1542 1542 1542 1542 1542 1541 1541 1541 1541 1541
1523 1519 1521 1525 1529 1529 1531 1533 1532 1532 1534 1537 1538 1538 1542 1544 1544 1545 1546 1546 1547 1547 1548 1548 1548 1547 1547 1546 1546 1546 1546 1546 1545 1545 1545 1545 1544 1544 1544 1544 1544 1544 1544 1543 1543 1544 1543 1543 1543
1523 1521 1524 1525 1528 1530 1532 1534 1535 1535 1537 1539 1539 1539 1542 1545 1545 1546 1547 1548 1548 1548 1549 1549 1550 1550 1550 1549 1548 1548 1548 1548 1547 1547 1547 1547 1547 1547 1547 1546 1546 1546 1546 1545 1545 1546 1546 1545 1545
1524 1523 1525 1527 1528 1530 1532 1534 1537 1538 1538 1540 1541 1542 1543 1544 1545 1547 1548 1549 1549 1550 1550 1551 1551 1551 1551 1551 1550 1550 1550 1550 1549 1549 1549 1549 1549 1549 1549 1548 1548 1548 1548 1547 1547 1547 1548 1547 1547
1524 1524 1527 1528 1528 1530 1533 1534 1536 1538 1539 1541 1542 1543 1543 1545 1546 1547 1548 1549 1550 1551 1551 1552 1552 1552 1553 1552 1552 1552 1552 1552 1552 1552 1552 1551 1551 1551 1551 1550 1550 1550 1550 1550 1549 1549 1550 1550 1550
1525 1526 1528 1530 1531 1532 1533 1536 1537 1537 1538 1540 1542 1543 1545 1546 1547 1548 1549 1550 1551 1552 1552 1553 1553 1554 1554 1554 1554 1554 1554 1554 1554 1554 1553 1553 1553 1553 1553 1553 1553 1552 1552 1552 1552 1552 1552 1552 1551
1527 1529 1530 1532 1533 1533 1534 1536 1538 1539 1541 1542 1543 1544 1545 1546 1548 1549 1550 1551 1552 1553 1553 1554 1554 1555 1555 1555 1555 1555 1555 1555 1555 1555 1555 1555 1555 1555 1555 1555 1554 1554 1554 1554 1554 1553 1554 1554 1553
1528 1531 1533 1534 1535 1535 1536 1537 1539 1541 1542 1543 1544 1545 1546 1547 1548 1550 1551 1552 1553 1553 1554 1554 1555 1556 1556 1556 1556 1557 1557 1557 1557 1556 1557 1557 1556 1556 1556 1556 1555 1555 1555 1555 1555 1555 1555 1555 1555
1530 1531 1533 1534 1535 1536 1537 1538 1540 1542 1543 1544 1545 1546 1547 1548 1549 1550 1551 1552 1553 1554 1554 1555 1555 1556 1557 1557 1557 1558 1558 1557 1558 1557 1558 1558 1557 1557 1557 1557 1557 1557 1557 1556 1556 1557 1556 1556 1556
1531 1531 1533 1534 1535 1536 1537 1538 1539 1542 1543 1544 1545 1546 1547 1548 1549 1550 1551 1552 1553 1554 1555 1555 1556 1557 1557 1558 1558 1558 1558 1559 1559 1558 1559 1559 1558 1558 1558 1558 1558 1558 1558 1558 1558 1557 1557 1557 1557
1529 1530 1532 1533 1534 1535 1537 1538 1539 1541 1543 1544 1545 1546 1547 1548 1549 1550 1551 1552 1553 1554 1555 1556 1556 1557 1558 1558 1558 1559 1559 1559 1559 1559 1559 1559 1559 1559 1559 1559 1559 1559 1559 1559 1558 1558 1558 1558 1558
1529 1531 1532 1532 1532 1533 1534 1535 1538 1540 1542 1543 1544 1545 1547 1548 1549 1550 1551 1552 1553 1554 1555 1556 1556 1557 1558 1558 1559 1559 1560 1560 1560 1560 1560 1560 1560 1560 1560 1560 1560 1560 1560 1560 1560 1559 1559 1559 1559
1531 1530 1531 1531 1531 1532 1533 1533 1536 1539 1540 1541 1542 1544 1545 1547 1548 1549 1551 1552 1553 1554 1555 1556 1556 1557 1558 1558 1559 1559 1560 1560 1560 1560 1560 1560 1560 1560 1560 1560 1561 1561 1561 1560 1560 1560 1560 1560 1559
1527 1529 1531 1530 1530 1531 1531 1532 1532 1536 1538 1539 1540 1542 1543 1545 1547 1548 1550 1551 1552 1553 1554 1555 1556 1557 1557 1558 1559 1559 1560 1560 1560 1560 1560 1560 1560 1560 1560 1560 1561 1561 1561 1561 1561 1561 1561 1560 1560
1528 1530 1531 1530 1530 1531 1530 1530 1529 1533 1535 1536 1537 1539 1541 1543 1545 1547 1548 1550 1551 1552 1553 1554 1555 1556 1557 1557 1559 1559 1560 1560 1560 1560 1560 1560 1560 1560 1560 1561 1561 1561 1561 1561 1561 1561 1561 1561 1561
1528 1528 1529 1531 1531 1530 1530 1529 1527 1529 1532 1534 1535 1537 1539 1541 1543 1545 1546 1548 1549 1551 1552 1553 1554 1555 1556 1557 1558 1558 1559 1559 1560 1560 1560 1560 1560 1560 1560 1560 1561 1561 1561 1561 1561 1561 1561 1561 1561
1528 1526 1528 1530 1531 1530 1530 1533 1524 1524 1528 1530 1532 1534 1536 1538 1540 1542 1544 1546 1547 1549 1550 1552 1553 1554 1555 1556 1557 1558 1558 1559 1559 1559 1559 1559 1559 1559 1559 1560 1560 1561 1561 1561 1561 1561 1561 1561 1561
1526 1527 1527 1528 1528 1529 1527 1530 1523 1522 1524 1525 1528 1530 1533 1535 1537 1539 1541 1543 1545 1547 1548 1550 1551 1553 1554 1555 1555 1556 1557 1558 1558 1558 1558 1558 1558 1558 1559 1559 1559 1560 1560 1560 1560 1560 1560 1560 1561
1527 1528 1528 1526 1526 1534 1526 1529 1526 1520 1521 1521 1524 1527 1530 1532 1534 1537 1539 1541 1543 1545 1546 1548 1549 1551 1552 1553 1554 1555 1556 1556 1556 1556 1557 1557 1557 1557 1558 1558 1558 1559 1559 1559 1559 1559 1559 1559 1559
1526 1528 1534 1534 1534 1531 1525 1528 1524 1519 1521 1522 1523 1525 1527 1529 1532 1534 1536 1538 1540 1542 1544 1546 1547 1549 1550 1551 1552 1553 1554 1555 1555 1555 1556 1556 1556 1556 1556 1557 1557 1557 1558 1558 1558 1558 1558 1558 1558
1523 1524 1533 1538 1535 1528 1526 1526 1520 1520 1522 1523 1523 1524 1526 1528 1530 1532 1534 1536 1538 1540 1542 1543 1545 1547 1548 1549 1550 1551 1552 1553 1554 1554 1554 1555 1555 1555 1555 1555 1556 1556 1556 1557 1557 1557 1557 1557 1557
1523 1523 1520 1525 1527 1531 1523 1520 1518 1520 1521 1522 1523 1524 1525 1526 1528 1530 1533 1534 1536 1538 1539 1541 1543 1544 1546 1547 1548 1549 1550 1551 1552 1552 1553 1553 1554 1554 1554 1554 1554 1554 1555 1555 1556 1556 1556 1556 1556
1522 1519 1523 1526 1534 1534 1525 1522 1520 1519 1519 1520 1522 1523 1524 1526 1527 1529 1531 1533 1534 1536 1538 1539 1541 1542 1544 1545 1546 1547 1548 1549 1550 1550 1551 1552 1552 1552 1552 1552 1553 1553 1553 1554 1554 1554 1554 1554 1554
1524 1524 1521 1521 1523 1529 1530 1524 1515 1518 1519 1520 1521 1523 1524 1525 1526 1528 1529 1531 1533 1534 1536 1537 1538 1540 1541 1542 1543 1545 1546 1546 1547 1548 1549 1549 1550 1550 1550 1551 1551 1551 1552 1552 1552 1552 1552 1553 1553
1521 1520 1520 1526 1524 1522 1524 1525 1516 1518 1520 1521 1522 1523 1524 1525 1526 1527 1528 1529 1531 1532 1534 1535 1536 1538 1539 1540 1541 1542 1543 1544 1545 1545 1546 1546 1547 1547 1548 1548 1549 1549 1550 1550 1551 1551 1551 1551 1551